ニート彗星

169P/NEAT (2005)

English version
Home page
Updated on May 8, 2006

---------------------------------------------------------------------

・ プロフィール

・ 写真集

・ 軌道要素

                    Epoch = 2005 Aug. 18.0 TT
     T = 2005 Sept.17.8587 TT         Peri. = 217.9272
     e = 0.767520                     Node  = 176.2462  2000.0
     q = 0.605325 AU                  Incl. =  11.3189
       a =  2.603775 AU    n = 0.2345843    P =   4.202 years

・ 星図

・ 光度変化

        H = 15.3  G = 0.15                [   ,-60]  (              〜2005年 7月19日)
        m1 = 15.8 + 5 logΔ + 20.0 log r  [-60, 60]  (2005年 7月19日〜2005年11月16日)
        H = 15.3  G = 0.15                [ 60,   ]  (2005年11月16日〜              )

        ※ 緑色の曲線は、H = 15.3  G = 0.15 の光度曲線です。

---------------------------------------------------------------------

軌道要素はIAUC 8578に掲載されたものです。
星図は StellaNavigator Ver.2.0 for Windows (アストロアーツ 編著 / アスキー出版局刊) で作成したものです。
光度グラフはComet for Windowsで作成したものです。

---------------------------------------------------------------------

Copyright(C) Seiichi Yoshida (comet@aerith.net). All rights reserved.